Location: Morehouse Lake Observatory
(43.3628°N, 74.6770°W)
Time: 12:46:44
(UTC-05:00)

Envisat - Pass Details

Date: 25 October 2019
Orbit: 764 x 766 km, 98.1° (Epoch: 19 November)

Event Time Altitude Azimuth Distance (km) Brightness Sun altitude
Rises 18:43:35 0° 158° (SSE) 3,218 6.1 -8.5°
Reaches altitude 10° 18:45:53 10° 155° (SSE) 2,296 5.3 -8.9°
Maximum altitude 18:50:54 68° 74° (ENE) 827 3.0 -9.8°
Drops below altitude 10° 18:55:58 10° 352° (N) 2,312 5.5 -10.8°
Sets 18:58:17 0° 350° (N) 3,242 6.3 -11.2°
